Other Public Products
Issued by NWS Charleston, SC

Home | Current Version | Previous Version | Text Only | Print | Product List | Glossary On
Versions: 1 2 3 4 5 6 7 8 9 10 11 12 13 14 15 16 17 18 19 20 21 22 23 24 25 26 27 28 29 30 31 32 33 34 35 36 37 38 39 40 41 42 43 44 45 46 47 48 49 50
000
FPUS82 KCHS 261227
OPUCHS

TEST...KCHS/KSAV Gateway Observations...TEST
National Weather Service Charleston SC
800 AM EDT WED JUL 26 2017

NOTE: "fair" indicates few or no clouds below 12,000 feet with no
significant weather and/or obstructions to visibility.

SCZ050-WAZ558-NCZ071-TXZ119-213-PAZ071-DCZ001-FLZ074-172-MI076-
NYZ176-178-MAZ016-IL014-TNZ027-NJZ106-GAZ044-MD014-261300-

...Gateway Observations for Charleston International...

CITY           SKY/WX    TMP DP  RH WIND       PRES   REMARKS
Chas Airport   LGT RAIN  75  71  87 NE5       30.10R
6HR MIN TEMP:  74; 6HR MAX TEMP:  76; 6HR PCP: TRACE;

Seattle        PTCLDY    58  53  84 W3        30.06R
6HR MIN TEMP:  58; 6HR MAX TEMP:  74;

Charlotte      CLOUDY    74  72  93 E10G22    30.17S
6HR MIN TEMP:  74; 6HR MAX TEMP:  82;

Dallas DFW     PTCLDY    80  73  79 S9        30.05R
6HR MIN TEMP:  80; 6HR MAX TEMP:  86;

Dallas Love    PTCLDY    80  72  76 S9        30.07R
6HR MIN TEMP:  80; 6HR MAX TEMP:  86;

Philladelphia  CLOUDY    69  62  78 NE8       30.24R
6HR MIN TEMP:  67; 6HR MAX TEMP:  69;

Wash National  MOSUNNY   72  66  81 N7        30.22R
6HR MIN TEMP:  69; 6HR MAX TEMP:  73;

Baltimore      PTSUNNY   68  67  96 NW5       30.22R
6HR MIN TEMP:  62; 6HR MAX TEMP:  68;

Miami          MOSUNNY   86  77  74 E6        30.08R HX  97
6HR MIN TEMP:  82; 6HR MAX TEMP:  86; 6HR PCP: TRACE;

Detroit        CLOUDY    66  60  81 S5        30.17S
6HR MIN TEMP:  61; 6HR MAX TEMP:  66;

Newark         PTSUNNY   69  57  65 N10       30.24R
6HR MIN TEMP:  66; 6HR MAX TEMP:  69;

Laguardia      MOSUNNY   67  58  72 NE6       30.24R
6HR MIN TEMP:  65; 6HR MAX TEMP:  68;

J F K          MOSUNNY   68  61  78 NE7       30.25R
6HR MIN TEMP:  63; 6HR MAX TEMP:  68;

Boston Logan   SUNNY     66  57  72 N3        30.23S
6HR MIN TEMP:  59; 6HR MAX TEMP:  66;

Ft. Lauderdale PTSUNNY   85  77  77 SE7       30.08R HX  95
6HR MIN TEMP:  84; 6HR MAX TEMP:  85;

Chicago O`Hare PTSUNNY   68  60  75 S7        30.09S
6HR MIN TEMP:  65; 6HR MAX TEMP:  70;

Chicago Midway CLOUDY    69  60  73 S7        30.09S
6HR MIN TEMP:  68; 6HR MAX TEMP:  72;

Houston Bush   PTCLDY    78  74  87 S5        30.10S
6HR MIN TEMP:  77; 6HR MAX TEMP:  83;

Houston Hobby  PTCLDY    80  75  84 CALM      30.09S
6HR MIN TEMP:  79; 6HR MAX TEMP:  82;

Nashville      MOSUNNY   76  73  91 S5        30.12S
6HR MIN TEMP:  75; 6HR MAX TEMP:  80;

Atlanta        MOSUNNY   76  72  87 NW5       30.13R
6HR MIN TEMP:  74; 6HR MAX TEMP:  76;


$$

GAZ044-118-TXZ119-213-NCZ071-DCZ001-MDZ014-506-PAZ021-071-NJZ106-
NYZ176-178-MAZ106-OHZ011-021-055-MIZ076-KYZ091-ILZ014-INZ047-
MNZ060-ONZ431-261300-

...Gateway Observations for Savannah International...

CITY           SKY/WX    TMP DP  RH WIND       PRES   REMARKS
Savannah Arpt  HVY RAIN  75  73  93 N7        30.12S FOG
                                      6HR PCP: TRACE;

Atlanta        MOSUNNY   76  72  87 NW5       30.13R
6HR MIN TEMP:  74; 6HR MAX TEMP:  76;

Charlotte      CLOUDY    74  72  93 E10G22    30.17S
6HR MIN TEMP:  74; 6HR MAX TEMP:  82;

Dallas DFW     PTCLDY    80  73  79 S9        30.05R
6HR MIN TEMP:  80; 6HR MAX TEMP:  86;

Houston Bush   PTCLDY    78  74  87 S5        30.10S
6HR MIN TEMP:  77; 6HR MAX TEMP:  83;

Wash National  MOSUNNY   72  66  81 N7        30.22R
6HR MIN TEMP:  69; 6HR MAX TEMP:  73;

Wash Dulles    PTSUNNY   67  62  84 NW7       30.24R
6HR MIN TEMP:  61; 6HR MAX TEMP:  67;

Baltimore      PTSUNNY   68  67  96 NW5       30.22R
6HR MIN TEMP:  62; 6HR MAX TEMP:  68;

Philadelphia   CLOUDY    69  62  78 NE8       30.24R
6HR MIN TEMP:  67; 6HR MAX TEMP:  69;

Newark         PTSUNNY   69  57  65 N10       30.24R
6HR MIN TEMP:  66; 6HR MAX TEMP:  69;

Laguardia      MOSUNNY   67  58  72 NE6       30.24R
6HR MIN TEMP:  65; 6HR MAX TEMP:  68;

J F K          MOSUNNY   68  61  78 NE7       30.25R
6HR MIN TEMP:  63; 6HR MAX TEMP:  68;

Boston         SUNNY     66  57  72 N3        30.23S
6HR MIN TEMP:  59; 6HR MAX TEMP:  66;

Pittsburg      MOSUNNY   62  62 100 E3        30.20F FOG
6HR MIN TEMP:  56; 6HR MAX TEMP:  63;

Akron          MOSUNNY   63  57  81 SE5       30.19S
6HR MIN TEMP:  56; 6HR MAX TEMP:  63;

Cleveland      MOSUNNY   66  59  78 S3        30.20R
6HR MIN TEMP:  57; 6HR MAX TEMP:  64;

Cincinnati     MOSUNNY   65  62  90 SE5       30.15S
6HR MIN TEMP:  61; 6HR MAX TEMP:  66;

Columbus       SUNNY     61  60  97 CALM      30.17S
Detroit        CLOUDY    66  60  81 S5        30.17S
6HR MIN TEMP:  61; 6HR MAX TEMP:  66;

Chicago O`Hare PTSUNNY   68  60  75 S7        30.09S
6HR MIN TEMP:  65; 6HR MAX TEMP:  70;

Minneapolis    CLOUDY    73  69  87 CALM      29.97R
6HR MIN TEMP:  72; 6HR MAX TEMP:  78; 6HR PCP:  0.43;

Indianapolis   MOSUNNY   65  61  87 SE8       30.14S
6HR MIN TEMP:  63; 6HR MAX TEMP:  67;

Toronto Canada PTSUNNY   64  57  77 VRB2      30.20S

$$




USA.gov is the U.S. government's official web portal to all federal, state and local government web resources and services.